Location: Newark
(40.7360°N, 74.1730°W)
Time: 19:38:09
(UTC-05:00)

Amateur Radio Satellites - All Passes

Search period start: 20 February 2017 19:08
Search period end: 21 February 2017 19:08
Location: Newark, 40.7360°N, 74.1730°W

Satellite Date Start Highest point End Downlink Frequencies (MHz)
Time Altitude Azimuth
CUBEBUG 2 20 Feb 19:10:46 19:15:05 70° 75° (ENE) 19:19:35 437.445
SEEDS 20 Feb 19:21:14 19:25:24 57° 260° (W) 19:29:36 437.485
STRAND 1 20 Feb 19:25:00 19:30:12 81° 103° (ESE) 19:35:21 437.568
AAUSAT CUBESAT 2 20 Feb 19:26:42 19:30:52 81° 79° (ENE) 19:35:03 437.432
XW-2A 20 Feb 19:34:17 19:35:38 12° 268° (W) 19:37:01 145.665 - 145.685
AO-73 20 Feb 19:48:38 19:52:57 61° 74° (ENE) 19:57:24 145.935
CUTE 1.7 + AOD 2 20 Feb 19:50:36 19:53:37 19° 267° (W) 19:56:40 437.475
UWE-3 20 Feb 19:59:47 20:04:03 54° 260° (W) 20:08:30 435.000/436.395/437.385
Oscar 11 20 Feb 20:02:19 20:06:40 77° 75° (ENE) 20:11:02 .
DELFI C3 20 Feb 20:13:03 20:16:31 29° 71° (ENE) 20:19:59 145.870
HO-68 20 Feb 20:21:43 20:26:38 19° 269° (W) 20:31:34 435.675
ZACube-1 20 Feb 20:33:21 20:37:28 39° 263° (W) 20:41:42 437.345
CUBEBUG 2 20 Feb 20:51:44 20:52:14 10° 272° (W) 20:52:44 437.445
STRAND 1 20 Feb 21:06:15 21:08:40 13° 300° (WNW) 21:11:05 437.568
RS-15 20 Feb 21:06:26 21:16:39 30° 334° (NNW) 21:27:03 29.354- 29.394
YUBILEINY 20 Feb 21:06:47 21:15:00 43° 74° (ENE) 21:23:07 435.215
ESTCUBE 1 20 Feb 21:14:27 21:16:13 12° 62° (ENE) 21:17:59 437.505/2401.250
FO-29 20 Feb 21:18:37 21:23:41 19° 86° (E) 21:28:30 435.910
AO-73 20 Feb 21:27:51 21:29:36 12° 271° (W) 21:31:22 145.935
PRISM 20 Feb 21:33:20 21:37:25 88° 105° (ESE) 21:41:29 437.425
UNISAT 6 20 Feb 21:41:35 21:46:05 43° 98° (E) 21:50:32 437.425
TIGRISAT 20 Feb 21:43:34 21:48:03 42° 98° (E) 21:52:29 435.000
DELFI C3 20 Feb 21:48:23 21:51:20 20° 266° (W) 21:54:17 145.870
VELOX 1 20 Feb 22:02:38 22:04:38 13° 62° (ENE) 22:06:36 145.980
O/OREOS (USA 219) 20 Feb 22:14:56 22:16:38 12° 98° (E) 22:18:21 437.305
AIST 2D 20 Feb 22:19:39 22:21:09 12° 91° (E) 22:22:38 435.315
POLYITAN 1 20 Feb 22:28:52 22:30:02 11° 90° (E) 22:31:13 437.675
QB50P2 20 Feb 22:30:54 22:32:50 13° 91° (E) 22:34:45 145.880/145.840
NANOSAT C BR1 20 Feb 22:33:19 22:34:36 11° 90° (E) 22:35:54 145.865
ESTCUBE 1 20 Feb 22:47:54 22:52:25 71° 259° (W) 22:56:57 437.505/2401.250
SPROUT 20 Feb 22:48:18 22:51:58 29° 70° (ENE) 22:55:41 437.525
SO-50 20 Feb 22:53:13 22:57:43 46° 117° (ESE) 23:02:09 436.795
FO-29 20 Feb 23:01:46 23:09:37 84° 285° (WNW) 23:16:48 435.910
YUBILEINY 20 Feb 23:03:45 23:11:43 41° 273° (W) 23:19:38 435.215
UNISAT 6 20 Feb 23:19:02 23:22:27 20° 295° (WNW) 23:25:51 437.425
TIGRISAT 20 Feb 23:20:57 23:24:25 21° 294° (WNW) 23:27:51 435.000
50 SAT 20 Feb 23:22:36 23:26:04 63° 76° (ENE) 23:29:34 437.505
RS-15 20 Feb 23:25:41 23:34:55 23° 9° (N) 23:44:02 29.354- 29.394
BUGSAT 1 20 Feb 23:26:04 23:28:18 14° 92° (E) 23:30:33 437.445
VELOX 1 20 Feb 23:36:12 23:40:32 62° 258° (WSW) 23:44:54 145.980
DUCHIFAT 1 20 Feb 23:41:28 23:45:43 62° 101° (ESE) 23:49:56 145.980
DX 1 20 Feb 23:45:03 23:49:21 73° 75° (ENE) 23:53:40 434.975-435.025
EO-79 20 Feb 23:46:03 23:50:22 85° 102° (ESE) 23:54:39 145.935-145.965
O/OREOS (USA 219) 20 Feb 23:51:02 23:55:27 61° 294° (WNW) 23:59:55 437.305
AIST 2D 20 Feb 23:51:13 23:54:33 37° 287° (WNW) 23:57:50 435.315
POLYITAN 1 21 Feb 00:01:57 00:06:13 63° 286° (WNW) 00:10:28 437.675
QB50P2 21 Feb 00:04:44 00:08:56 54° 287° (WNW) 00:13:07 145.880/145.840
NANOSAT C BR1 21 Feb 00:06:28 00:10:42 61° 285° (WNW) 00:14:54 145.865
UKube-1 21 Feb 00:07:40 00:11:58 87° 251° (WSW) 00:16:18 .
SPROUT 21 Feb 00:24:31 00:27:53 23° 265° (W) 00:31:18 437.525
SO-50 21 Feb 00:34:38 00:38:23 23° 315° (NW) 00:42:06 436.795
FO-29 21 Feb 00:48:27 00:53:23 19° 305° (NW) 00:58:09 435.910
Oscar 19 21 Feb 00:58:33 01:03:21 39° 98° (E) 01:08:08 437.125/150
BUGSAT 1 21 Feb 00:59:50 01:03:55 48° 287° (WNW) 01:08:00 437.445
Gurwin Techsat 1B 21 Feb 01:02:37 01:06:56 24° 94° (E) 01:11:12 435.225
DUCHIFAT 1 21 Feb 01:19:07 01:20:51 12° 297° (WNW) 01:22:34 145.980
ITUPSAT 1 21 Feb 01:21:01 01:25:27 38° 70° (ENE) 01:29:53 437.325
BEESAT 21 Feb 01:30:55 01:35:30 49° 72° (ENE) 01:40:08 436.000
PCSat 21 Feb 01:34:58 01:40:04 39° 54° (NE) 01:45:07 145.827
RS-15 21 Feb 01:40:05 01:51:50 46° 42° (NE) 02:03:09 29.354- 29.394
AO-7 21 Feb 02:08:34 02:13:59 19° 91° (E) 02:19:21 .
KKS-1 21 Feb 02:11:29 02:12:59 12° 61° (ENE) 02:14:28 437.445
MOZHAYETS 4 21 Feb 02:36:45 02:41:23 79° 75° (ENE) 02:46:03
Oscar 19 21 Feb 02:38:20 02:42:27 25° 295° (WNW) 02:46:33 437.125/150
Gurwin Techsat 1B 21 Feb 02:42:01 02:47:00 42° 291° (WNW) 02:51:57 435.225
STARS 21 Feb 02:58:23 03:01:06 16° 64° (ENE) 03:03:49 437.465
ITUPSAT 1 21 Feb 02:59:37 03:03:22 23° 266° (W) 03:07:08 437.325
ITAMSAT 1 21 Feb 03:00:02 03:05:12 56° 101° (E) 03:10:19 435.822/435.867
BEESAT 21 Feb 03:10:22 03:13:32 17° 268° (W) 03:16:42 436.000
PCSat 21 Feb 03:18:38 03:23:18 30° 251° (WSW) 03:27:56 145.827
CUBESAT XI-V 21 Feb 03:22:55 03:27:13 37° 70° (ENE) 03:31:31 437.345
M-CUBED/EXP-1 PRIME 21 Feb 03:31:33 03:34:28 28° 66° (ENE) 03:37:20 437.505
KKS-1 21 Feb 03:44:31 03:48:55 72° 259° (WSW) 03:53:21 437.445
RS-15 21 Feb 03:52:55 04:04:55 63° 247° (WSW) 04:16:23 29.354- 29.394
AO-7 21 Feb 03:59:19 04:07:42 87° 288° (WNW) 04:15:59 .
STARS 21 Feb 04:32:51 04:37:03 47° 260° (W) 04:41:17 437.465
AO-85 21 Feb 04:36:22 04:40:28 32° 115° (ESE) 04:44:20 145.980
ITAMSAT 1 21 Feb 04:40:35 04:44:13 19° 298° (WNW) 04:47:50 435.822/435.867
CUBESAT XI-V 21 Feb 05:01:07 05:04:41 21° 266° (W) 05:08:15 437.345
DOVE 4 21 Feb 05:01:48 05:04:42 16° 93° (E) 05:07:41 437.250
STRAND 1 21 Feb 05:04:25 05:07:06 14° 60° (ENE) 05:09:48 437.568
M-CUBED/EXP-1 PRIME 21 Feb 05:07:14 05:09:02 14° 260° (W) 05:10:49 437.505
CUTE-I 21 Feb 05:12:34 05:16:14 18° 92° (E) 05:19:53 437.470
XW-2F 21 Feb 05:13:50 05:16:07 15° 92° (E) 05:18:24 145.980 - 146.000
XW-2D 21 Feb 05:15:11 05:17:44 17° 93° (E) 05:20:15 145.860 - 145.880
KAITUO 1B 21 Feb 05:17:38 05:19:41 14° 92° (E) 05:21:43 145.475/437.950
XW-2B 21 Feb 05:19:56 05:22:41 19° 94° (E) 05:25:24 145.730 - 145.750
XW-2C 21 Feb 05:28:03 05:31:11 23° 95° (E) 05:34:17 145.795 - 145.815
LilacSat-2 21 Feb 05:39:15 05:42:47 33° 97° (E) 05:46:17 437.200
AO-7 21 Feb 05:53:38 05:59:20 21° 309° (NW) 06:05:01 .
NUDT-PHONESAT 21 Feb 05:57:19 06:00:56 43° 98° (E) 06:04:32 437.300
HO-68 21 Feb 06:02:00 06:05:05 13° 88° (E) 06:08:09 435.675
RS-15 21 Feb 06:10:51 06:14:35 12° 268° (W) 06:18:19 29.354- 29.394
AO-85 21 Feb 06:16:58 06:20:52 28° 310° (NW) 06:24:32 145.980
DOVE 4 21 Feb 06:38:09 06:42:35 51° 286° (WNW) 06:47:17 437.250
STRAND 1 21 Feb 06:40:31 06:45:38 75° 258° (WSW) 06:50:48 437.568
XW-2F 21 Feb 06:46:54 06:50:24 35° 288° (WNW) 06:53:52 145.980 - 146.000
XW-2D 21 Feb 06:48:34 06:52:00 32° 289° (WNW) 06:55:24 145.860 - 145.880
KAITUO 1B 21 Feb 06:50:21 06:53:52 37° 288° (WNW) 06:57:21 145.475/437.950
CUTE-I 21 Feb 06:51:21 06:56:37 56° 288° (WNW) 07:01:51 437.470
XW-2B 21 Feb 06:53:34 06:56:54 29° 289° (WNW) 07:00:13 145.730 - 145.750
XW-2A 21 Feb 06:54:18 06:57:34 38° 99° (E) 07:00:48 145.665 - 145.685
XW-2C 21 Feb 07:02:12 07:05:17 23° 291° (WNW) 07:08:20 145.795 - 145.815
CUBEBUG 2 21 Feb 07:02:47 07:05:51 17° 91° (E) 07:08:53 437.445
BEESAT 3 21 Feb 07:04:31 07:08:20 60° 119° (ESE) 07:12:15 437.485
SEEDS 21 Feb 07:05:46 07:09:08 23° 94° (E) 07:12:27 437.485
AAUSAT CUBESAT 2 21 Feb 07:10:58 07:12:42 12° 91° (E) 07:14:27 437.432
LilacSat-2 21 Feb 07:14:16 07:16:48 17° 293° (WNW) 07:19:19 437.200
SO-50 21 Feb 07:24:48 07:29:02 38° 51° (NE) 07:33:12 436.795
BEESAT 2 21 Feb 07:32:03 07:35:50 48° 117° (ESE) 07:39:41 435.950
NUDT-PHONESAT 21 Feb 07:32:42 07:34:29 13° 295° (WNW) 07:36:15 437.300
CUTE 1.7 + AOD 2 21 Feb 07:34:08 07:38:23 77° 103° (ESE) 07:42:35 437.475
AO-73 21 Feb 07:38:45 07:40:46 13° 89° (E) 07:42:45 145.935
HO-68 21 Feb 07:46:36 07:53:48 81° 105° (ESE) 08:00:57 435.675
UWE-3 21 Feb 07:49:39 07:53:51 32° 96° (E) 07:57:59 435.000/436.395/437.385
Oscar 11 21 Feb 07:51:17 07:53:39 14° 91° (E) 07:55:58 .
ISS 21 Feb 08:17:45 08:19:39 15° 130° (SE) 08:21:33 437.550
ZACube-1 21 Feb 08:21:37 08:25:57 41° 98° (E) 08:30:13 437.345
PRISM 21 Feb 08:21:59 08:25:59 58° 74° (ENE) 08:30:01 437.425
O/OREOS (USA 219) 21 Feb 08:22:25 08:26:12 25° 58° (ENE) 08:29:58 437.305
XW-2A 21 Feb 08:28:32 08:29:58 12° 294° (WNW) 08:31:24 145.665 - 145.685
CUBEBUG 2 21 Feb 08:38:06 08:42:43 50° 287° (WNW) 08:47:18 437.445
UNISAT 6 21 Feb 08:40:01 08:44:04 35° 70° (ENE) 08:48:14 437.425
SEEDS 21 Feb 08:41:12 08:44:47 28° 290° (WNW) 08:48:20 437.485
TIGRISAT 21 Feb 08:41:53 08:45:54 34° 70° (ENE) 08:50:00 435.000
BEESAT 3 21 Feb 08:44:01 08:46:20 15° 317° (NW) 08:48:41 437.485
AAUSAT CUBESAT 2 21 Feb 08:44:28 08:48:28 50° 286° (WNW) 08:52:26 437.432
Tancredo 1 21 Feb 08:53:15 08:56:13 34° 136° (SE) 08:59:13 437.200
SO-50 21 Feb 09:05:43 09:09:15 23° 248° (WSW) 09:12:47 436.795
BEESAT 2 21 Feb 09:11:07 09:13:52 18° 315° (NW) 09:16:39 435.950
FO-29 21 Feb 09:12:18 09:18:50 46° 67° (ENE) 09:26:00 435.910
AO-73 21 Feb 09:12:52 09:17:23 61° 286° (WNW) 09:21:49 145.935
DELFI C3 21 Feb 09:24:32 09:28:21 49° 99° (E) 09:32:09 145.870
Oscar 11 21 Feb 09:25:51 09:30:03 48° 287° (WNW) 09:34:11 .
UWE-3 21 Feb 09:26:16 09:30:08 26° 292° (WNW) 09:33:58 435.000/436.395/437.385
HO-68 21 Feb 09:35:46 09:40:41 20° 304° (NW) 09:45:36 435.675
ISS 21 Feb 09:52:30 09:55:46 62° 326° (NNW) 09:59:03 437.550
ZACube-1 21 Feb 09:58:36 10:01:55 20° 294° (WNW) 10:05:12 437.345
PRISM 21 Feb 10:00:39 10:01:37 11° 269° (W) 10:02:36 437.425
O/OREOS (USA 219) 21 Feb 10:01:32 10:05:37 33° 256° (WSW) 10:09:44 437.305
YUBILEINY 21 Feb 10:07:02 10:15:24 50° 89° (E) 10:23:44 435.215
UNISAT 6 21 Feb 10:17:28 10:20:52 21° 267° (W) 10:24:20 437.425
TIGRISAT 21 Feb 10:19:12 10:22:38 22° 267° (W) 10:26:10 435.000
AIST 2D 21 Feb 10:24:47 10:28:17 67° 76° (ENE) 10:31:51 435.315
Tancredo 1 21 Feb 10:29:36 10:32:32 30° 333° (NNW) 10:35:29 437.200
DUCHIFAT 1 21 Feb 10:32:45 10:36:43 42° 72° (ENE) 10:40:43 145.980
EO-79 21 Feb 10:37:47 10:41:55 59° 74° (ENE) 10:46:06 145.935-145.965
ESTCUBE 1 21 Feb 10:41:09 10:44:47 24° 95° (E) 10:48:24 437.505/2401.250
POLYITAN 1 21 Feb 10:53:42 10:57:56 89° 256° (WSW) 11:02:13 437.675
QB50P2 21 Feb 10:56:29 11:00:42 78° 258° (WSW) 11:04:58 145.880/145.840
NANOSAT C BR1 21 Feb 10:57:43 11:01:55 88° 254° (WSW) 11:06:11 145.865
FO-29 21 Feb 10:57:44 11:03:56 36° 267° (W) 11:10:46 435.910
DELFI C3 21 Feb 11:00:59 11:02:43 13° 296° (WNW) 11:04:27 145.870
VELOX 1 21 Feb 11:26:51 11:30:26 24° 95° (E) 11:34:01 145.980
ISS 21 Feb 11:30:33 11:32:45 16° 345° (NNW) 11:34:57 437.550
DX 1 21 Feb 11:35:16 11:37:10 13° 91° (E) 11:39:04 434.975-435.025
BUGSAT 1 21 Feb 11:48:46 11:52:47 74° 259° (W) 11:56:52 437.445
UKube-1 21 Feb 11:56:11 11:58:45 15° 93° (E) 12:01:20 .
YUBILEINY 21 Feb 12:04:26 12:12:22 36° 289° (WNW) 12:20:21 435.215
Tancredo 1 21 Feb 12:08:01 12:09:37 13° 353° (N) 12:11:13 437.200
SPROUT 21 Feb 12:09:17 12:13:33 59° 101° (E) 12:17:48 437.525
DUCHIFAT 1 21 Feb 12:10:04 12:12:35 15° 268° (W) 12:15:08 145.980
Oscar 19 21 Feb 12:14:56 12:19:59 57° 72° (ENE) 12:25:01 437.125/150
EO-79 21 Feb 12:16:43 12:18:04 11° 270° (W) 12:19:24 145.935-145.965
ESTCUBE 1 21 Feb 12:17:38 12:21:35 31° 291° (WNW) 12:25:31 437.505/2401.250
50 SAT 21 Feb 12:20:44 12:24:12 73° 101° (ESE) 12:27:39 437.505
Gurwin Techsat 1B 21 Feb 12:23:14 12:28:06 38° 69° (ENE) 12:32:59 435.225
ITAMSAT 1 21 Feb 12:42:49 12:44:13 11° 57° (ENE) 12:45:37 435.822/435.867
VELOX 1 21 Feb 13:03:02 13:06:52 30° 291° (WNW) 13:10:43 145.980
AO-7 21 Feb 13:07:05 13:13:54 29° 56° (NE) 13:20:41 .
AO-85 21 Feb 13:07:53 13:11:05 23° 48° (NE) 13:14:17 145.980
ISS 21 Feb 13:08:39 13:10:15 13° 5° (N) 13:11:52 437.550
DX 1 21 Feb 13:09:25 13:13:41 56° 287° (WNW) 13:17:56 434.975-435.025
UKube-1 21 Feb 13:30:53 13:35:00 45° 288° (WNW) 13:39:07 .
BEESAT 21 Feb 13:33:13 13:35:12 12° 90° (E) 13:37:09 436.000
Tancredo 1 21 Feb 13:44:58 13:46:57 15° 13° (NNE) 13:48:57 437.200
SPROUT 21 Feb 13:46:58 13:48:57 13° 297° (WNW) 13:50:58 437.525
Oscar 19 21 Feb 13:56:22 13:59:38 17° 268° (W) 14:02:55 437.125/150
Gurwin Techsat 1B 21 Feb 14:03:41 14:08:07 27° 265° (W) 14:12:34 435.225
ITAMSAT 1 21 Feb 14:17:37 14:22:48 83° 77° (ENE) 14:28:04 435.822/435.867
MOZHAYETS 4 21 Feb 14:33:01 14:36:15 19° 93° (E) 14:39:28
ISS 21 Feb 14:44:40 14:47:33 27° 25° (NNE) 14:50:26 437.550
AO-85 21 Feb 14:48:01 14:51:28 30° 245° (WSW) 14:54:58 145.980
AO-7 21 Feb 14:57:41 15:06:00 69° 255° (WSW) 15:14:22 .
ITUPSAT 1 21 Feb 14:58:56 15:03:46 87° 284° (WNW) 15:08:34 437.325
BEESAT 21 Feb 15:08:39 15:13:26 68° 286° (WNW) 15:18:09 436.000
Tancredo 1 21 Feb 15:20:40 15:23:50 51° 32° (NNE) 15:26:58 437.200
BEESAT 3 21 Feb 15:21:42 15:25:21 32° 51° (NE) 15:28:58 437.485
KKS-1 21 Feb 15:36:15 15:39:43 22° 95° (E) 15:43:09 437.445
BEESAT 2 21 Feb 15:50:06 15:53:37 28° 49° (NE) 15:57:08 435.950
ITAMSAT 1 21 Feb 16:01:18 16:02:54 11° 271° (W) 16:04:29 435.822/435.867
RS-15 21 Feb 16:06:07 16:14:40 24° 99° (E) 16:23:25 29.354- 29.394
DOVE 4 21 Feb 16:08:23 16:10:29 14° 64° (ENE) 16:12:35 437.250
MOZHAYETS 4 21 Feb 16:09:14 16:13:35 42° 289° (WNW) 16:17:54
XW-2C 21 Feb 16:10:36 16:12:12 12° 65° (ENE) 16:13:49 145.795 - 145.815
PCSat 21 Feb 16:16:26 16:21:20 36° 110° (ESE) 16:26:16 145.827
ISS 21 Feb 16:20:59 16:24:06 40° 223° (SW) 16:27:10 437.550
LilacSat-2 21 Feb 16:21:34 16:24:10 17° 67° (ENE) 16:26:45 437.200
STARS 21 Feb 16:22:24 16:26:20 30° 97° (E) 16:30:13 437.465
HO-68 21 Feb 16:33:07 16:35:10 11° 49° (NE) 16:37:13 435.675
CUTE-I 21 Feb 16:33:48 16:38:22 30° 66° (ENE) 16:42:58 437.470
NUDT-PHONESAT 21 Feb 16:37:04 16:39:50 20° 68° (ENE) 16:42:38 437.300
ITUPSAT 1 21 Feb 16:40:16 16:40:48 10° 301° (WNW) 16:41:21 437.325
M-CUBED/EXP-1 PRIME 21 Feb 16:43:31 16:46:35 24° 102° (ESE) 16:49:50 437.505
CUBESAT XI-V 21 Feb 16:56:26 17:01:03 85° 284° (WNW) 17:05:38 437.345
AO-7 21 Feb 16:57:38 17:00:09 11° 273° (W) 17:02:42 .
Tancredo 1 21 Feb 16:57:43 16:59:51 17° 229° (SW) 17:01:58 437.200
BEESAT 3 21 Feb 16:59:38 17:02:47 22° 248° (WSW) 17:05:54 437.485
KKS-1 21 Feb 17:12:17 17:16:20 34° 290° (WNW) 17:20:21 437.445
XW-2F 21 Feb 17:26:46 17:30:36 81° 259° (W) 17:34:28 145.980 - 146.000
XW-2A 21 Feb 17:26:57 17:28:35 13° 67° (ENE) 17:30:14 145.665 - 145.685
BEESAT 2 21 Feb 17:27:53 17:31:20 27° 246° (WSW) 17:34:45 435.950
XW-2D 21 Feb 17:28:43 17:32:32 72° 258° (WSW) 17:36:24 145.860 - 145.880
KAITUO 1B 21 Feb 17:29:24 17:33:11 89° 206° (SSW) 17:37:02 145.475/437.950
XW-2B 21 Feb 17:33:41 17:37:29 64° 259° (W) 17:41:20 145.730 - 145.750
XW-2C 21 Feb 17:42:14 17:45:58 49° 261° (W) 17:49:43 145.795 - 145.815
DOVE 4 21 Feb 17:43:45 17:47:47 48° 261° (W) 17:51:49 437.250
LilacSat-2 21 Feb 17:54:39 17:58:10 33° 263° (W) 18:01:44 437.200
SEEDS 21 Feb 17:57:45 18:00:27 17° 66° (ENE) 18:03:09 437.485
STARS 21 Feb 17:58:56 18:02:32 25° 293° (WNW) 18:06:07 437.465
PCSat 21 Feb 17:59:51 18:04:43 33° 308° (NW) 18:09:37 145.827
CUBEBUG 2 21 Feb 18:01:39 18:03:43 13° 62° (ENE) 18:05:49 437.445
NUDT-PHONESAT 21 Feb 18:10:23 18:13:36 27° 264° (W) 18:16:51 437.300
CUTE-I 21 Feb 18:13:28 18:18:17 35° 263° (W) 18:23:10 437.470
RS-15 21 Feb 18:13:28 18:25:25 90° 127° (SE) 18:37:52 29.354- 29.394
HO-68 21 Feb 18:14:25 18:21:25 59° 69° (ENE) 18:28:26 435.675
M-CUBED/EXP-1 PRIME 21 Feb 18:18:01 18:20:58 23° 295° (WNW) 18:24:06 437.505
CUTE 1.7 + AOD 2 21 Feb 18:26:03 18:30:12 51° 74° (ENE) 18:34:22 437.475
AO-73 21 Feb 18:35:45 18:36:16 10° 61° (ENE) 18:36:47 145.935
UWE-3 21 Feb 18:46:30 18:50:03 24° 67° (ENE) 18:53:42 435.000/436.395/437.385
Oscar 11 21 Feb 18:46:55 18:48:28 12° 62° (ENE) 18:50:01 .
STRAND 1 21 Feb 18:51:27 18:56:16 38° 98° (E) 19:01:02 437.568
XW-2A 21 Feb 18:57:58 19:01:03 33° 262° (W) 19:04:10 145.665 - 145.685
